This is the latest recevied weather packets stored in our database for station/object IW3HBX-13. If no packets are shown the sender has not sent any weather packets the latest 10 day(s).
| Time | Temp. | Humidity | Pressure | Rain* | Wind** | Luminosity | Snow |
|---|---|---|---|---|---|---|---|
| 1777856049 | 14.44° C | 73% | 1017.2 hPa | 0 mm | - | 0 W/m² | - |
| 1777855689 | 15° C | 73% | 1017.3 hPa | 0 mm | - | 0 W/m² | - |
| 1777855329 | 15° C | 72% | 1017.3 hPa | 0 mm | - | 0 W/m² | - |
| 1777854967 | 15° C | 72% | 1017.3 hPa | 0 mm | - | 0 W/m² | - |
| 1777854607 | 15.56° C | 72% | 1017.4 hPa | 0 mm | - | 0 W/m² | - |
| 1777854247 | 15.56° C | 71% | 1017.3 hPa | 0 mm | - | 0 W/m² | - |
| 1777853891 | 16.11° C | 68% | 1017.3 hPa | 0 mm | - | 0 W/m² | - |
| 1777853528 | 16.11° C | 68% | 1017.4 hPa | 0 mm | - | 0 W/m² | - |
| 1777853167 | 16.11° C | 68% | 1017.4 hPa | 0 mm | - | 0 W/m² | - |
| 1777852447 | 16.11° C | 67% | 1017.4 hPa | 0 mm | - | 0 W/m² | - |
| 1777852089 | 16.11° C | 68% | 1017.4 hPa | 0 mm | - | 0 W/m² | - |
| 1777851731 | 16.11° C | 68% | 1017.4 hPa | 0 mm | - | 0 W/m² | - |
| 1777851367 | 16.11° C | 68% | 1017.5 hPa | 0 mm | - | 0 W/m² | - |
| 1777851009 | 16.11° C | 68% | 1017.6 hPa | 0 mm | - | 0 W/m² | - |
| 1777850647 | 16.11° C | 68% | 1017.5 hPa | 0 mm | - | 0 W/m² | - |
| 1777850287 | 15.56° C | 69% | 1017.6 hPa | 0 mm | - | 0 W/m² | - |
| 1777849928 | 15.56° C | 71% | 1017.5 hPa | 0 mm | - | 0 W/m² | - |
| 1777849569 | 15° C | 73% | 1017.6 hPa | 0 mm | - | 0 W/m² | - |
| 1777848847 | 15° C | 73% | 1017.8 hPa | 0 mm | - | 0 W/m² | - |
| 1777848487 | 15° C | 73% | 1017.8 hPa | 0 mm | - | 0 W/m² | - |
| 1777848127 | 15.56° C | 71% | 1017.8 hPa | 0 mm | - | 0 W/m² | - |
| 1777847767 | 15° C | 73% | 1017.8 hPa | 0 mm | - | 0 W/m² | - |
| 1777847409 | 15° C | 73% | 1017.8 hPa | 0 mm | - | 0 W/m² | - |
| 1777846687 | 15.56° C | 71% | 1017.7 hPa | 0 mm | - | 0 W/m² | - |
| 1777846331 | 15.56° C | 71% | 1017.8 hPa | 0 mm | - | 0 W/m² | - |
* Rain latest hour (hover to see other rain measurements)
** Current wind speed in m/s (hover to see current wind gust speed)